sat.trackr.live / text

‹ back to catalog

STARLINK-31802

NORAD 59636 · 2024-082F

PAYLOAD ACTIVE UNKNOWN

§ Identity

Operator
Country
US
Launch date
2024-05-03
Launch site
AFETR
Launch vehicle
Mass (kg)
RCS (m²)

Purposes: comms

External: N2YO · Heavens-Above · Gunter

§ Orbital elements

Epoch: 2026-05-25T02:10:18.880320Z

Period
94.27 min
Inclination
43.0041°
Eccentricity
0.0001302
Mean motion
15.27572348 rev/d
Perigee alt
482.2 km
Apogee alt
484.0 km
Semi-major
6,861.2 km
B*
3.9051e-5
RAAN
68.5853°
Arg perigee
292.9146°
Mean anomaly
67.1568°
Rev number
11,649

§ Raw data

STARLINK-318021 59636U 24082F   26145.09049630  .00000812  00000+0  39051-4 0  99962 59636  43.0041  68.5853 0001302 292.9146  67.1568 15.27572348116495

JSON: /api/v1/satellites/59636 · /tle

For live sub-satellite position, see the globe view (requires WebGL).

§ Visibility from observer

Set your observer location to see the next 7 days of passes ≥ 10°. The values pass through the URL so the page stays shareable.

No JS? Fill the form by hand. The geolocation button needs JavaScript.